Hourly Data Report for June 09, 2021

BORDEN AWOS
ONTARIO
Current Station Operator: DND

44°16'20.000" N
79°54'42.000" W
222.50 m
611B002
71534
YBN

Download Data

Hourly Data (June 2021)
Hourly Data Report for June 9, 2021
TIME
LST
Temp Definition
°C
Dew Point Definition
°C
Rel Hum Definition
%
Precip. Amount Definition
mm

Wind Dir Definition
10's deg

Wind Spd Definition
km/h
Visibility Definition
km
Stn Press Definition
kPa
Hmdx Definition


Wind Chill Definition


Weather Definition


00:00 20.9 18.8 88   30 7 14.5 99.14 28   LegendNANA
01:00 20.2 18.5 90   28 4 12.9 99.11 27   LegendNANA
02:00 18.8 17.6 93     0 1.9 99.09     LegendNANA
03:00 17.0 16.0 94     0 0.2 99.06     LegendNANA
04:00 16.7 15.7 94   32 6 0.3 99.09     LegendNANA
05:00 18.0 17.1 95     0 0.2 99.13     LegendNANA
06:00
07:00 19.9 19.0 95   34 7 6.4 99.25     LegendNANA
08:00 21.7 19.0 85   36 13 14.5 99.28 28   LegendNANA
09:00 23.8 19.4 76   35 13 14.5 99.29 31   LegendNANA
10:00 25.1 19.9 73   32 4 14.5 99.34 33   LegendNANA
11:00 26.7 20.3 68   5 11 14.5 99.34 35   LegendNANA
12:00 28.0 20.7 65   9 7 14.5 99.31 36   LegendNANA
13:00 28.9 20.0 59   2 13 14.5 99.26 36   LegendNANA
14:00 30.4 18.7 50   6 17 14.5 99.21 37   LegendNANA
15:00 30.3 16.6 44   10 15 14.5 99.15 35   LegendNANA
16:00 30.4 15.9 42   7 15 14.5 99.11 35   LegendNANA
17:00 30.2 15.4 41   7 15 14.5 99.11 34   LegendNANA
18:00 27.5 18.0 56   32 7 14.5 99.14 34   LegendNANA
19:00 27.0 17.6 56   35 7 14.5 99.18 33   LegendNANA
20:00 24.0 16.8 64   34 7 14.5 99.19 29   LegendNANA
21:00 21.9 16.7 72     0 14.5 99.24 27   LegendNANA
22:00 19.5 16.3 82   36 4 14.5 99.27     LegendNANA
23:00 18.4 15.7 84     0 14.5 99.27     LegendNANA

Notes on Data Quality.

Legend

  • E = Estimated
  • M = Missing
  • NA = Not Available*
  • [empty] = Indicates an unobserved value
Date modified: